Location: Champs
(48.8539°N, 2.6040°E)
Time: 10:04:06
(UTC+00:00)

SPOT 1 Rocket Y - Visible Passes

Search period start: 17 August 2022 00:00
Search period end: 27 August 2022 00:00
Orbit: 785 x 832 km, 98.5° (Epoch: 16 August)

Date Brightness Start Highest point End Pass type
(mag) Time Alt. Az. Time Alt. Az. Time Alt. Az.
17 Aug 5.8 20:25:19 10° S 20:30:31 72° WSW 20:35:51 10° NNW visible
17 Aug 8.3 22:10:11 10° W 22:11:23 11° W 22:12:34 10° WNW visible
18 Aug 5.6 20:01:06 10° SSE 20:06:19 74° ENE 20:11:38 10° NNW visible
18 Aug 7.9 21:43:19 10° SW 21:46:47 18° W 21:50:18 10° NW visible
19 Aug 6.0 19:37:10 10° SE 19:42:11 48° ENE 19:47:17 10° N visible
19 Aug 7.3 21:17:51 10° SSW 21:22:17 28° W 21:26:48 10° NW visible
20 Aug 6.6 20:52:54 10° S 20:57:53 43° W 21:02:57 10° NNW visible
21 Aug 5.9 20:28:21 10° S 20:33:34 68° WSW 20:38:54 10° NNW visible
22 Aug 5.6 20:04:06 10° SSE 20:09:21 79° ENE 20:14:42 10° NNW visible
22 Aug 8.0 21:46:33 10° SW 21:49:52 17° W 21:53:13 10° NW visible
23 Aug 5.9 19:40:08 10° SE 19:45:12 51° ENE 19:50:23 10° N visible
23 Aug 7.4 21:21:00 10° SSW 21:25:22 26° W 21:29:48 10° NW visible
24 Aug 6.4 19:16:27 10° SE 19:21:10 34° ENE 19:25:55 10° N visible
24 Aug 6.7 20:56:09 11° SSW 21:00:57 40° W 21:05:59 10° NNW visible
25 Aug 6.0 20:31:45 12° S 20:36:37 64° WSW 20:41:57 10° NNW visible
26 Aug 5.6 20:07:20 11° SSE 20:12:23 84° ENE 20:17:46 10° NNW visible
26 Aug 8.0 21:49:50 10° WSW 21:52:58 16° W 21:56:08 10° NW visible
